VHMFA UGKO-LTCE

Flight info

Callsign VHMFA
Flight time 2h 15m
Altitude 3500
Route BT DF TBS GND FZL ZNG NAX ZVR GDR
Aircraft F111/M-SBDE3FHRXY/S

Departure

Time 2026-04-18 08:41
Airport David the Builder Kutaisi International Airport (UGKO)

Arrival

Time 2026-04-18 10:56
Airport Erzurum International Airport (LTCE)
Time Latitude Longitude Altitude Speed Heading
2026-04-18 08:17 42.18175 42.46741 149 ft 0 kts 268°
2026-04-18 08:34 42.18156 42.46703 148 ft 2 kts 224°
2026-04-18 08:34 42.18122 42.46665 146 ft 12 kts 218°
2026-04-18 08:34 42.18044 42.46589 145 ft 14 kts 214°
2026-04-18 08:35 42.17962 42.46587 144 ft 12 kts 140°
2026-04-18 08:35 42.17878 42.46679 145 ft 21 kts 139°
2026-04-18 08:35 42.17742 42.46739 145 ft 21 kts 170°
2026-04-18 08:35 42.17616 42.46764 143 ft 6 kts 173°
2026-04-18 08:36 42.17615 42.46765 143 ft 0 kts 173°
2026-04-18 08:40 42.17610 42.46765 143 ft 5 kts 172°
2026-04-18 08:40 42.17558 42.46775 142 ft 14 kts 172°
2026-04-18 08:40 42.17508 42.46794 142 ft 6 kts 143°
2026-04-18 08:40 42.17503 42.46847 142 ft 0 kts 77°
2026-04-18 08:41 42.17546 42.47161 145 ft 97 kts 80°
2026-04-18 08:41 42.17702 42.48463 826 ft 145 kts 82°
2026-04-18 08:41 42.17905 42.49901 1841 ft 171 kts 82°
2026-04-18 08:42 42.18115 42.51588 2781 ft 195 kts 85°
2026-04-18 08:42 42.18185 42.53581 2998 ft 238 kts 90°
2026-04-18 08:42 42.18113 42.55983 3090 ft 276 kts 92°
2026-04-18 08:42 42.18041 42.58422 3023 ft 256 kts 91°
2026-04-18 08:43 42.17975 42.60711 2898 ft 229 kts 95°
2026-04-18 08:43 42.17804 42.62752 2866 ft 207 kts 96°
2026-04-18 08:43 42.17651 42.64608 2748 ft 198 kts 96°
2026-04-18 08:43 42.17444 42.66544 1875 ft 225 kts 105°
2026-04-18 08:44 42.16948 42.68546 1389 ft 212 kts 90°
2026-04-18 08:44 42.16851 42.70406 2190 ft 205 kts 94°
2026-04-18 08:44 42.16703 42.72362 3204 ft 219 kts 96°
2026-04-18 08:44 42.16540 42.74489 3336 ft 235 kts 96°
2026-04-18 08:45 42.16370 42.76699 3361 ft 239 kts 97°
2026-04-18 08:45 42.16210 42.78924 3227 ft 243 kts 93°
2026-04-18 08:45 42.16243 42.81195 3196 ft 241 kts 85°
2026-04-18 08:45 42.16523 42.83384 3205 ft 236 kts 78°
2026-04-18 08:46 42.16727 42.85522 3169 ft 228 kts 88°
2026-04-18 08:46 42.16779 42.87645 3188 ft 225 kts 89°
2026-04-18 08:46 42.16813 42.89721 3183 ft 222 kts 89°
2026-04-18 08:46 42.16685 42.91754 3112 ft 221 kts 110°
2026-04-18 08:47 42.15970 42.93592 3174 ft 220 kts 113°
2026-04-18 08:47 42.15323 42.95487 3212 ft 224 kts 111°
2026-04-18 08:47 42.14700 42.97450 3274 ft 231 kts 111°
2026-04-18 08:47 42.14113 42.99497 3183 ft 239 kts 109°
2026-04-18 08:48 42.13636 43.01647 3211 ft 245 kts 106°
2026-04-18 08:48 42.13131 43.03855 3219 ft 248 kts 108°
2026-04-18 08:48 42.12573 43.06076 3265 ft 251 kts 109°
2026-04-18 08:48 42.12026 43.08317 3301 ft 253 kts 109°
2026-04-18 08:49 42.11507 43.10558 3323 ft 255 kts 109°
2026-04-18 08:49 42.10962 43.12812 3268 ft 256 kts 109°
2026-04-18 08:49 42.10016 43.14785 2933 ft 265 kts 145°
2026-04-18 08:49 42.08314 43.15777 3153 ft 257 kts 155°
2026-04-18 08:50 42.06777 43.16586 3934 ft 225 kts 155°
2026-04-18 08:50 42.05287 43.17427 3521 ft 246 kts 150°
2026-04-18 08:50 42.03849 43.18576 3296 ft 250 kts 141°
2026-04-18 08:50 42.02492 43.20112 3228 ft 245 kts 135°
2026-04-18 08:51 42.01253 43.21655 3100 ft 243 kts 134°
2026-04-18 08:51 42.00025 43.23237 3079 ft 242 kts 134°
2026-04-18 08:51 41.98812 43.24782 3208 ft 239 kts 134°
2026-04-18 08:51 41.97729 43.26482 3220 ft 241 kts 124°
2026-04-18 08:52 41.96868 43.28387 3218 ft 241 kts 108°
2026-04-18 08:52 41.96679 43.30648 3267 ft 242 kts 89°
2026-04-18 08:52 41.96865 43.32895 3371 ft 246 kts 78°
2026-04-18 08:52 41.97326 43.35123 3435 ft 251 kts 69°
2026-04-18 08:53 41.97991 43.37313 3355 ft 254 kts 66°
2026-04-18 08:53 41.98708 43.39449 3365 ft 252 kts 64°
2026-04-18 08:53 41.99398 43.41587 3322 ft 247 kts 65°
2026-04-18 08:53 42.00125 43.43701 3323 ft 249 kts 64°
2026-04-18 08:54 42.00882 43.45800 3332 ft 252 kts 62°
2026-04-18 08:54 42.01759 43.47818 3338 ft 251 kts 59°
2026-04-18 08:54 42.02657 43.49693 3255 ft 248 kts 60°
2026-04-18 08:54 42.03426 43.51786 3455 ft 237 kts 66°
2026-04-18 08:55 42.04200 43.53751 3451 ft 243 kts 63°
2026-04-18 08:55 42.05036 43.55737 3435 ft 247 kts 62°
2026-04-18 08:55 42.05879 43.57771 3381 ft 252 kts 61°
2026-04-18 08:55 42.06730 43.59828 3332 ft 251 kts 61°
2026-04-18 08:56 42.07571 43.61838 3378 ft 247 kts 62°
2026-04-18 08:56 42.08429 43.63851 3339 ft 248 kts 63°
2026-04-18 08:56 42.08550 43.66111 3096 ft 258 kts 109°
2026-04-18 08:56 42.07880 43.68230 3306 ft 236 kts 102°
2026-04-18 08:57 42.06979 43.72403 3302 ft 234 kts 106°
2026-04-18 08:57 42.06456 43.74494 3327 ft 238 kts 107°
2026-04-18 08:57 42.05880 43.76585 3351 ft 240 kts 114°
2026-04-18 08:58 42.04638 43.78169 3143 ft 254 kts 145°
2026-04-18 08:58 42.03208 43.79510 3334 ft 250 kts 143°
2026-04-18 08:58 42.01876 43.80890 3333 ft 252 kts 134°
2026-04-18 08:58 42.00955 43.82949 3296 ft 252 kts 106°
2026-04-18 08:59 42.00744 43.85281 3348 ft 252 kts 92°
2026-04-18 08:59 42.00685 43.87658 3350 ft 256 kts 91°
2026-04-18 08:59 42.00664 43.90063 3368 ft 258 kts 91°
2026-04-18 08:59 42.00668 43.92476 3423 ft 258 kts 90°
2026-04-18 09:00 42.00683 43.94880 3407 ft 262 kts 89°
2026-04-18 09:00 42.00695 43.97327 3430 ft 262 kts 91°
2026-04-18 09:00 42.00672 43.99779 3426 ft 262 kts 92°
2026-04-18 09:00 42.00451 44.02174 3434 ft 262 kts 103°
2026-04-18 09:01 41.99994 44.04555 3385 ft 264 kts 106°
2026-04-18 09:01 41.99482 44.06902 3424 ft 264 kts 107°
2026-04-18 09:01 41.98941 44.09259 3426 ft 263 kts 107°
2026-04-18 09:01 41.98390 44.11615 3391 ft 265 kts 107°
2026-04-18 09:02 41.97829 44.13990 3416 ft 268 kts 107°
2026-04-18 09:02 41.97255 44.16375 3429 ft 269 kts 108°
2026-04-18 09:02 41.96874 44.17957 3448 ft 268 kts 108°
2026-04-18 09:02 41.96123 44.21125 3420 ft 268 kts 107°
2026-04-18 09:03 41.95554 44.23499 3408 ft 267 kts 107°
2026-04-18 09:03 41.94982 44.25871 3435 ft 266 kts 108°
2026-04-18 09:03 41.94414 44.28244 3435 ft 266 kts 108°
2026-04-18 09:03 41.93847 44.30607 3411 ft 266 kts 108°
2026-04-18 09:04 41.93284 44.32946 3419 ft 266 kts 108°
2026-04-18 09:04 41.92906 44.34507 3409 ft 266 kts 108°
2026-04-18 09:04 41.92421 44.36892 3368 ft 264 kts 101°
2026-04-18 09:04 41.91837 44.39187 3341 ft 262 kts 119°
2026-04-18 09:05 41.90910 44.41275 3406 ft 260 kts 122°
2026-04-18 09:05 41.89926 44.43243 3455 ft 262 kts 124°
2026-04-18 09:05 41.89085 44.45458 3390 ft 265 kts 102°
2026-04-18 09:05 41.89257 44.47950 3353 ft 269 kts 80°
2026-04-18 09:06 41.89654 44.50364 3505 ft 266 kts 80°
2026-04-18 09:06 41.90038 44.52820 3511 ft 270 kts 78°
2026-04-18 09:06 41.90793 44.55150 3494 ft 275 kts 62°
2026-04-18 09:06 41.91760 44.57349 3493 ft 277 kts 60°
2026-04-18 09:07 41.92766 44.59563 3492 ft 276 kts 65°
2026-04-18 09:07 41.92920 44.62035 3017 ft 279 kts 119°
2026-04-18 09:07 41.91622 44.63880 3271 ft 258 kts 141°
2026-04-18 09:07 41.90312 44.65340 3908 ft 240 kts 141°
2026-04-18 09:08 41.88992 44.66831 3643 ft 254 kts 135°
2026-04-18 09:08 41.88324 44.69004 3113 ft 272 kts 90°
2026-04-18 09:08 41.88396 44.71442 3373 ft 252 kts 106°
2026-04-18 09:08 41.87315 44.73172 3066 ft 257 kts 153°
2026-04-18 09:09 41.85823 44.74181 3805 ft 228 kts 153°
2026-04-18 09:09 41.84385 44.75144 3750 ft 239 kts 153°
2026-04-18 09:09 41.82858 44.76155 3633 ft 249 kts 153°
2026-04-18 09:09 41.81273 44.77195 3614 ft 257 kts 153°
2026-04-18 09:10 41.79647 44.78245 3590 ft 262 kts 153°
2026-04-18 09:10 41.78121 44.79592 3561 ft 265 kts 142°
2026-04-18 09:10 41.76680 44.81151 3525 ft 267 kts 139°
2026-04-18 09:10 41.75272 44.82792 3531 ft 270 kts 137°
2026-04-18 09:11 41.73901 44.84513 3533 ft 270 kts 138°
2026-04-18 09:11 41.72571 44.86283 3489 ft 270 kts 130°
2026-04-18 09:11 41.71393 44.88236 3535 ft 269 kts 128°
2026-04-18 09:11 41.70166 44.90124 3514 ft 269 kts 134°
2026-04-18 09:12 41.68871 44.91933 3517 ft 269 kts 132°
2026-04-18 09:12 41.67640 44.93817 3517 ft 269 kts 130°
2026-04-18 09:12 41.66365 44.95650 3514 ft 268 kts 135°
2026-04-18 09:12 41.65137 44.97519 3507 ft 267 kts 129°
2026-04-18 09:13 41.63915 44.99397 3516 ft 267 kts 133°
2026-04-18 09:13 41.62637 45.01188 3502 ft 267 kts 133°
2026-04-18 09:13 41.61413 45.03050 3484 ft 266 kts 131°
2026-04-18 09:13 41.60188 45.04885 3497 ft 267 kts 132°
2026-04-18 09:14 41.58933 45.06708 3486 ft 266 kts 132°
2026-04-18 09:14 41.57698 45.08547 3511 ft 267 kts 131°
2026-04-18 09:14 41.56460 45.10391 3520 ft 267 kts 132°
2026-04-18 09:14 41.55211 45.12226 3533 ft 267 kts 132°
2026-04-18 09:15 41.53968 45.14070 3515 ft 268 kts 131°
2026-04-18 09:15 41.52717 45.15912 3505 ft 268 kts 132°
2026-04-18 09:15 41.51462 45.17762 3513 ft 269 kts 132°
2026-04-18 09:15 41.50211 45.19616 3503 ft 269 kts 131°
2026-04-18 09:16 41.48957 45.21472 3499 ft 269 kts 132°
2026-04-18 09:16 41.47704 45.23320 3467 ft 269 kts 132°
2026-04-18 09:16 41.46436 45.25188 3384 ft 279 kts 132°
2026-04-18 09:16 41.45081 45.27182 3188 ft 295 kts 132°
2026-04-18 09:17 41.43782 45.29102 3654 ft 266 kts 131°
2026-04-18 09:17 41.42545 45.30923 3496 ft 264 kts 132°
2026-04-18 09:17 41.41320 45.32725 3511 ft 260 kts 132°
2026-04-18 09:17 41.40118 45.34492 3486 ft 255 kts 131°
2026-04-18 09:18 41.38942 45.36225 3503 ft 247 kts 131°
2026-04-18 09:18 41.37798 45.37914 3496 ft 247 kts 132°
2026-04-18 09:18 41.36631 45.39628 3516 ft 252 kts 132°
2026-04-18 09:18 41.35444 45.41367 3539 ft 256 kts 131°
2026-04-18 09:19 41.34241 45.43139 3531 ft 260 kts 131°
2026-04-18 09:19 41.33021 45.44932 3525 ft 263 kts 131°
2026-04-18 09:19 41.31806 45.46719 3501 ft 265 kts 131°
2026-04-18 09:19 41.30547 45.48565 3504 ft 267 kts 131°
2026-04-18 09:20 41.29299 45.50399 3500 ft 268 kts 131°
2026-04-18 09:20 41.28059 45.52215 3506 ft 269 kts 132°
2026-04-18 09:20 41.26798 45.54062 3490 ft 270 kts 131°
2026-04-18 09:20 41.25537 45.55913 3500 ft 270 kts 131°
2026-04-18 09:21 41.24275 45.57768 3483 ft 271 kts 131°
2026-04-18 09:21 41.23006 45.59623 3482 ft 271 kts 132°
2026-04-18 09:21 41.21735 45.61477 3487 ft 272 kts 131°
2026-04-18 09:21 41.20466 45.63338 3476 ft 272 kts 131°
2026-04-18 09:22 41.19199 45.65197 3465 ft 271 kts 131°
2026-04-18 09:22 41.17928 45.67050 3471 ft 271 kts 131°
2026-04-18 09:22 41.16659 45.68905 3484 ft 272 kts 131°
2026-04-18 09:22 41.15388 45.70764 3473 ft 272 kts 131°
2026-04-18 09:23 41.14118 45.72621 3464 ft 271 kts 131°
2026-04-18 09:23 41.12852 45.74467 3472 ft 269 kts 131°
2026-04-18 09:23 41.11593 45.76301 3478 ft 269 kts 131°
2026-04-18 09:23 41.10341 45.78132 3484 ft 268 kts 131°
2026-04-18 09:24 41.09091 45.79955 3458 ft 267 kts 131°
2026-04-18 09:24 41.07840 45.81773 3472 ft 266 kts 131°
2026-04-18 09:24 41.06598 45.83593 3475 ft 266 kts 131°
2026-04-18 09:24 41.05348 45.85403 3474 ft 266 kts 131°
2026-04-18 09:25 41.04108 45.87210 3479 ft 265 kts 131°
2026-04-18 09:25 41.02869 45.89020 3475 ft 265 kts 131°
2026-04-18 09:25 41.01631 45.90823 3473 ft 264 kts 131°
2026-04-18 09:25 41.00386 45.92621 3467 ft 264 kts 131°
2026-04-18 09:26 40.99149 45.94425 3463 ft 265 kts 131°
2026-04-18 09:26 40.97913 45.96236 3414 ft 265 kts 131°
2026-04-18 09:26 40.96670 45.98030 3449 ft 265 kts 131°
2026-04-18 09:26 40.95428 45.99827 3457 ft 264 kts 131°
2026-04-18 09:27 40.94192 46.01628 3474 ft 265 kts 131°
2026-04-18 09:27 40.92954 46.03433 3486 ft 265 kts 131°
2026-04-18 09:27 40.91704 46.05239 3482 ft 266 kts 131°
2026-04-18 09:27 40.90453 46.07051 3489 ft 267 kts 131°
2026-04-18 09:28 40.89200 46.08864 3483 ft 268 kts 131°
2026-04-18 09:28 40.87963 46.10666 3488 ft 268 kts 131°
2026-04-18 09:28 40.86687 46.12514 3484 ft 269 kts 131°
2026-04-18 09:28 40.85442 46.14314 3459 ft 269 kts 131°
2026-04-18 09:29 40.84183 46.16143 3462 ft 269 kts 131°
2026-04-18 09:29 40.82928 46.17969 3466 ft 269 kts 131°
2026-04-18 09:29 40.81659 46.19791 3473 ft 269 kts 131°
2026-04-18 09:29 40.80400 46.21619 3482 ft 269 kts 130°
2026-04-18 09:30 40.79138 46.23442 3477 ft 269 kts 131°
2026-04-18 09:30 40.77874 46.25269 3471 ft 269 kts 131°
2026-04-18 09:30 40.76615 46.27085 3473 ft 269 kts 131°
2026-04-18 09:30 40.75344 46.28917 3478 ft 270 kts 131°
2026-04-18 09:31 40.74078 46.30742 3477 ft 270 kts 131°
2026-04-18 09:31 40.72815 46.32568 3473 ft 270 kts 131°
2026-04-18 09:31 40.71443 46.34227 3367 ft 270 kts 154°
2026-04-18 09:31 40.69602 46.34816 3333 ft 267 kts 166°
2026-04-18 09:32 40.67883 46.35554 3442 ft 264 kts 158°
2026-04-18 09:32 40.66163 46.36519 3462 ft 263 kts 148°
2026-04-18 09:32 40.64776 46.38072 3475 ft 261 kts 134°
2026-04-18 09:32 40.63500 46.39781 3479 ft 262 kts 133°
2026-04-18 09:33 40.62239 46.41525 3481 ft 263 kts 131°
2026-04-18 09:33 40.60855 46.43087 3421 ft 265 kts 150°
2026-04-18 09:33 40.59329 46.44380 3424 ft 260 kts 136°
2026-04-18 09:33 40.58030 46.46029 3467 ft 259 kts 133°
2026-04-18 09:34 40.56792 46.47718 3465 ft 261 kts 132°
2026-04-18 09:34 40.55551 46.49462 3480 ft 262 kts 131°
2026-04-18 09:34 40.54314 46.51225 3484 ft 263 kts 131°
2026-04-18 09:34 40.53072 46.53005 3505 ft 264 kts 131°
2026-04-18 09:35 40.51826 46.54793 3511 ft 266 kts 130°
2026-04-18 09:35 40.50635 46.56655 3510 ft 267 kts 127°
2026-04-18 09:35 40.49475 46.58567 3503 ft 268 kts 126°
2026-04-18 09:35 40.48331 46.60502 3499 ft 268 kts 127°
2026-04-18 09:36 40.47197 46.62450 3499 ft 269 kts 126°
2026-04-18 09:36 40.46069 46.64398 3483 ft 268 kts 126°
2026-04-18 09:36 40.44939 46.66347 3470 ft 268 kts 126°
2026-04-18 09:36 40.43696 46.68160 3482 ft 267 kts 135°
2026-04-18 09:37 40.42348 46.69844 3478 ft 267 kts 137°
2026-04-18 09:37 40.40976 46.71486 3469 ft 267 kts 138°
2026-04-18 09:37 40.39502 46.72948 3435 ft 266 kts 150°
2026-04-18 09:37 40.37864 46.74073 3476 ft 265 kts 153°
2026-04-18 09:38 40.36199 46.75113 3463 ft 265 kts 154°
2026-04-18 09:38 40.34519 46.76122 3468 ft 266 kts 155°
2026-04-18 09:38 40.32813 46.77168 3129 ft 278 kts 152°
2026-04-18 09:38 40.31090 46.78279 3086 ft 271 kts 155°
2026-04-18 09:39 40.29434 46.79283 2947 ft 255 kts 150°
2026-04-18 09:39 40.28096 46.80700 2721 ft 246 kts 132°
2026-04-18 09:39 40.26970 46.82384 2662 ft 246 kts 129°
2026-04-18 09:39 40.25872 46.84109 2586 ft 249 kts 129°
2026-04-18 09:40 40.24747 46.85915 2262 ft 260 kts 128°
2026-04-18 09:40 40.23444 46.87517 2127 ft 263 kts 143°
2026-04-18 09:40 40.21946 46.88870 2101 ft 260 kts 145°
2026-04-18 09:40 40.20431 46.90148 2057 ft 259 kts 146°
2026-04-18 09:41 40.18904 46.91413 2018 ft 256 kts 147°
2026-04-18 09:41 40.17402 46.92650 1999 ft 253 kts 147°
2026-04-18 09:41 40.15946 46.93911 1986 ft 249 kts 141°
2026-04-18 09:41 40.14631 46.95378 1977 ft 250 kts 137°
2026-04-18 09:42 40.13355 46.96934 2014 ft 252 kts 136°
2026-04-18 09:42 40.12093 46.98526 2026 ft 253 kts 135°
2026-04-18 09:42 40.10846 47.00107 2014 ft 253 kts 136°
2026-04-18 09:42 40.09468 47.01543 2014 ft 254 kts 143°
2026-04-18 09:43 40.08018 47.02859 2031 ft 254 kts 145°
2026-04-18 09:43 40.06548 47.04159 2017 ft 256 kts 146°
2026-04-18 09:43 40.05068 47.05447 2021 ft 256 kts 146°
2026-04-18 09:43 40.03583 47.06738 2000 ft 257 kts 146°
2026-04-18 09:44 40.02093 47.08028 2001 ft 257 kts 146°
2026-04-18 09:44 40.00602 47.09312 2001 ft 257 kts 146°
2026-04-18 09:44 39.99110 47.10596 2027 ft 257 kts 146°
2026-04-18 09:44 39.97611 47.11877 2028 ft 259 kts 146°
2026-04-18 09:45 39.96109 47.13173 2025 ft 259 kts 146°
2026-04-18 09:45 39.94601 47.14469 2026 ft 260 kts 146°
2026-04-18 09:45 39.93093 47.15773 2041 ft 260 kts 146°
2026-04-18 09:45 39.91586 47.17079 2020 ft 261 kts 146°
2026-04-18 09:46 39.90073 47.18392 2022 ft 261 kts 146°
2026-04-18 09:46 39.88562 47.19703 2021 ft 261 kts 146°
2026-04-18 09:46 39.87049 47.21012 2011 ft 261 kts 146°
2026-04-18 09:46 39.85533 47.22318 1981 ft 261 kts 146°
2026-04-18 09:47 39.84010 47.23612 1984 ft 261 kts 146°
2026-04-18 09:47 39.82443 47.24781 1975 ft 260 kts 163°
2026-04-18 09:47 39.80629 47.24570 1708 ft 268 kts 197°
2026-04-18 09:47 39.78936 47.23877 2087 ft 254 kts 196°
2026-04-18 09:48 39.77214 47.23281 2023 ft 258 kts 190°
2026-04-18 09:48 39.75443 47.22891 2030 ft 259 kts 187°
2026-04-18 09:48 39.73657 47.22564 2038 ft 260 kts 186°
2026-04-18 09:48 39.71856 47.22260 2038 ft 262 kts 186°
2026-04-18 09:49 39.70043 47.21975 2021 ft 263 kts 186°
2026-04-18 09:49 39.68226 47.21703 2018 ft 263 kts 186°
2026-04-18 09:49 39.66409 47.21431 2078 ft 260 kts 186°
2026-04-18 09:49 39.64656 47.21176 2408 ft 250 kts 186°
2026-04-18 09:50 39.62907 47.20929 2413 ft 256 kts 186°
2026-04-18 09:50 39.61111 47.20669 2481 ft 262 kts 186°
2026-04-18 09:50 39.59277 47.20400 2518 ft 269 kts 185°
2026-04-18 09:50 39.57403 47.20110 2520 ft 274 kts 185°
2026-04-18 09:51 39.55493 47.19807 2494 ft 278 kts 186°
2026-04-18 09:51 39.53555 47.19499 2505 ft 282 kts 185°
2026-04-18 09:51 39.51601 47.19180 2492 ft 285 kts 186°
2026-04-18 09:51 39.49664 47.18636 2446 ft 288 kts 202°
2026-04-18 09:52 39.47844 47.17573 2523 ft 288 kts 205°
2026-04-18 09:52 39.46022 47.16453 2521 ft 292 kts 205°
2026-04-18 09:52 39.44193 47.15303 2528 ft 294 kts 205°
2026-04-18 09:52 39.42976 47.14532 2526 ft 294 kts 206°
2026-04-18 09:53 39.41136 47.13368 2498 ft 295 kts 205°
2026-04-18 09:53 39.38675 47.11780 2477 ft 296 kts 205°
2026-04-18 09:53 39.37468 47.10971 2470 ft 294 kts 211°
2026-04-18 09:53 39.35386 47.08664 2511 ft 294 kts 221°
2026-04-18 09:54 39.33890 47.06903 2510 ft 295 kts 221°
2026-04-18 09:54 39.32363 47.05119 2516 ft 297 kts 222°
2026-04-18 09:54 39.30825 47.03325 2513 ft 299 kts 221°
2026-04-18 09:54 39.29273 47.01527 2528 ft 301 kts 222°
2026-04-18 09:55 39.27713 46.99728 2506 ft 301 kts 221°
2026-04-18 09:55 39.26153 46.97922 2487 ft 302 kts 221°
2026-04-18 09:55 39.24595 46.96115 2499 ft 301 kts 221°
2026-04-18 09:55 39.23562 46.94875 2510 ft 300 kts 225°
2026-04-18 09:56 39.22142 46.92901 2502 ft 299 kts 230°
2026-04-18 09:56 39.20432 46.90137 2509 ft 296 kts 232°
2026-04-18 09:56 39.19589 46.88711 2521 ft 296 kts 232°
2026-04-18 09:56 39.18369 46.86621 2514 ft 295 kts 233°
2026-04-18 09:57 39.17137 46.84493 2481 ft 294 kts 233°
2026-04-18 09:57 39.15926 46.82394 2455 ft 291 kts 233°
2026-04-18 09:57 39.14731 46.80320 2480 ft 286 kts 233°
2026-04-18 09:57 39.13549 46.78271 2491 ft 283 kts 233°
2026-04-18 09:58 39.12285 46.76358 2475 ft 280 kts 222°
2026-04-18 09:58 39.10783 46.74788 2489 ft 276 kts 214°
2026-04-18 09:58 39.09194 46.73420 2487 ft 274 kts 212°
2026-04-18 09:58 39.07595 46.72121 2519 ft 271 kts 211°
2026-04-18 09:59 39.05992 46.70849 2516 ft 270 kts 210°
2026-04-18 09:59 39.04399 46.69584 2508 ft 269 kts 211°
2026-04-18 09:59 39.02809 46.68334 2486 ft 268 kts 211°
2026-04-18 10:00 38.99641 46.65880 2516 ft 264 kts 211°
2026-04-18 10:00 38.98064 46.64685 2500 ft 263 kts 208°
2026-04-18 10:00 38.96419 46.63652 2412 ft 264 kts 202°
2026-04-18 10:00 38.94749 46.62733 2334 ft 265 kts 202°
2026-04-18 10:01 38.93289 46.61898 2257 ft 266 kts 204°
2026-04-18 10:01 38.91715 46.60818 2224 ft 264 kts 213°
2026-04-18 10:01 38.90287 46.59367 2148 ft 261 kts 227°
2026-04-18 10:01 38.89253 46.57459 1965 ft 262 kts 242°
2026-04-18 10:02 38.88386 46.55409 1795 ft 260 kts 235°
2026-04-18 10:02 38.87097 46.53782 1669 ft 256 kts 227°
2026-04-18 10:02 38.86982 46.51557 2386 ft 278 kts 274°
2026-04-18 10:02 38.87604 46.49252 2316 ft 309 kts 321°
2026-04-18 10:03 38.89055 46.47079 1590 ft 326 kts 284°
2026-04-18 10:03 38.90003 46.44868 1702 ft 280 kts 262°
2026-04-18 10:03 38.89135 46.42755 1595 ft 281 kts 217°
2026-04-18 10:03 38.88918 46.40491 1940 ft 323 kts 303°
2026-04-18 10:04 38.90504 46.38301 1797 ft 339 kts 300°
2026-04-18 10:04 38.91641 46.35589 1800 ft 354 kts 278°
2026-04-18 10:04 38.90747 46.32860 2013 ft 333 kts 247°
2026-04-18 10:04 38.90342 46.29913 2242 ft 348 kts 258°
2026-04-18 10:05 38.89359 46.27068 2329 ft 357 kts 228°
2026-04-18 10:05 38.87642 46.24813 2602 ft 350 kts 229°
2026-04-18 10:05 38.86239 46.22180 2505 ft 365 kts 239°
2026-04-18 10:05 38.84765 46.19568 2668 ft 349 kts 226°
2026-04-18 10:06 38.84146 46.16705 2200 ft 358 kts 274°
2026-04-18 10:06 38.84559 46.13670 2229 ft 349 kts 291°
2026-04-18 10:06 38.86025 46.11300 2193 ft 345 kts 314°
2026-04-18 10:06 38.87149 46.08674 2409 ft 340 kts 292°
2026-04-18 10:07 38.88526 46.06281 2573 ft 326 kts 295°
2026-04-18 10:07 38.89045 46.03471 2750 ft 326 kts 280°
2026-04-18 10:07 38.89452 46.00593 2662 ft 330 kts 279°
2026-04-18 10:07 38.89794 45.97679 2616 ft 328 kts 274°
2026-04-18 10:08 38.89636 45.94810 2643 ft 321 kts 256°
2026-04-18 10:08 38.89099 45.91987 2766 ft 330 kts 256°
2026-04-18 10:08 38.88928 45.89040 2795 ft 338 kts 277°
2026-04-18 10:08 38.89555 45.86121 2963 ft 341 kts 289°
2026-04-18 10:09 38.90322 45.83273 3004 ft 335 kts 289°
2026-04-18 10:09 38.91060 45.80463 3070 ft 329 kts 288°
2026-04-18 10:09 38.91760 45.77675 3065 ft 328 kts 288°
2026-04-18 10:09 38.92445 45.74897 3104 ft 323 kts 289°
2026-04-18 10:10 38.93209 45.72190 3137 ft 321 kts 291°
2026-04-18 10:10 38.94020 45.69509 3110 ft 322 kts 291°
2026-04-18 10:10 38.94602 45.66714 3057 ft 324 kts 281°
2026-04-18 10:10 38.95027 45.63868 3044 ft 326 kts 279°
2026-04-18 10:11 38.95848 45.61249 3238 ft 314 kts 312°
2026-04-18 10:11 38.97566 45.59632 3429 ft 304 kts 334°
2026-04-18 10:11 38.99468 45.58498 3530 ft 299 kts 336°
2026-04-18 10:11 39.01307 45.57406 3634 ft 292 kts 335°
2026-04-18 10:12 39.03120 45.56247 3637 ft 290 kts 333°
2026-04-18 10:12 39.04904 45.55012 3447 ft 297 kts 333°
2026-04-18 10:12 39.06549 45.53702 4278 ft 276 kts 325°
2026-04-18 10:12 39.08190 45.52106 3775 ft 303 kts 323°
2026-04-18 10:13 39.09958 45.50663 3970 ft 297 kts 329°
2026-04-18 10:13 39.11720 45.49276 4034 ft 297 kts 327°
2026-04-18 10:13 39.13452 45.47953 4221 ft 283 kts 337°
2026-04-18 10:13 39.15332 45.47176 4135 ft 286 kts 343°
2026-04-18 10:14 39.17202 45.46364 4310 ft 287 kts 323°
2026-04-18 10:14 39.16795 45.44400 4037 ft 354 kts 156°
2026-04-18 10:14 39.17411 45.46111 4100 ft 410 kts 314°
2026-04-18 10:14 39.19112 45.43382 4703 ft 400 kts 307°
2026-04-18 10:15 39.20824 45.40501 5360 ft 389 kts 308°
2026-04-18 10:15 39.22591 45.38054 5939 ft 362 kts 314°
2026-04-18 10:15 39.24166 45.35806 5574 ft 319 kts 298°
2026-04-18 10:15 39.25170 45.33387 5052 ft 300 kts 296°
2026-04-18 10:16 39.26101 45.30994 4474 ft 297 kts 295°
2026-04-18 10:16 39.27016 45.28620 4074 ft 296 kts 300°
2026-04-18 10:16 39.28199 45.26481 3896 ft 290 kts 311°
2026-04-18 10:16 39.29561 45.24622 3873 ft 277 kts 316°
2026-04-18 10:17 39.30884 45.22929 4039 ft 265 kts 315°
2026-04-18 10:17 39.32273 45.21095 4116 ft 306 kts 315°
2026-04-18 10:17 39.33682 45.19139 4497 ft 294 kts 313°
2026-04-18 10:17 39.35079 45.17224 4492 ft 296 kts 313°
2026-04-18 10:18 39.36510 45.15297 4444 ft 297 kts 314°
2026-04-18 10:18 39.37951 45.13412 4393 ft 291 kts 319°
2026-04-18 10:18 39.39493 45.11762 4349 ft 284 kts 322°
2026-04-18 10:18 39.41040 45.10220 4369 ft 278 kts 323°
2026-04-18 10:19 39.42575 45.08722 4372 ft 277 kts 323°
2026-04-18 10:19 39.44126 45.07220 4395 ft 279 kts 323°
2026-04-18 10:19 39.45691 45.05718 4410 ft 281 kts 323°
2026-04-18 10:19 39.47271 45.04210 4415 ft 283 kts 324°
2026-04-18 10:20 39.48861 45.02690 4421 ft 285 kts 324°
2026-04-18 10:20 39.50459 45.01163 4424 ft 286 kts 324°
2026-04-18 10:20 39.52062 44.99629 4423 ft 288 kts 324°
2026-04-18 10:20 39.53683 44.98079 4424 ft 291 kts 324°
2026-04-18 10:21 39.55317 44.96518 4423 ft 293 kts 324°
2026-04-18 10:21 39.56966 44.94942 4424 ft 296 kts 324°
2026-04-18 10:21 39.58625 44.93350 4424 ft 297 kts 324°
2026-04-18 10:21 39.60292 44.91760 4423 ft 299 kts 324°
2026-04-18 10:22 39.61973 44.90158 4422 ft 300 kts 324°
2026-04-18 10:22 39.63660 44.88547 4392 ft 301 kts 324°
2026-04-18 10:22 39.65335 44.86944 4356 ft 298 kts 324°
2026-04-18 10:22 39.66969 44.85368 4358 ft 295 kts 324°
2026-04-18 10:23 39.68611 44.83780 4380 ft 294 kts 324°
2026-04-18 10:23 39.70248 44.82191 4367 ft 293 kts 324°
2026-04-18 10:23 39.71880 44.80619 4351 ft 291 kts 324°
2026-04-18 10:23 39.73508 44.79058 4367 ft 290 kts 324°
2026-04-18 10:24 39.75130 44.77498 4360 ft 290 kts 324°
2026-04-18 10:24 39.76752 44.75934 4378 ft 291 kts 323°
2026-04-18 10:24 39.78382 44.74372 4398 ft 293 kts 324°
2026-04-18 10:24 39.80021 44.72791 4411 ft 294 kts 324°
2026-04-18 10:25 39.81663 44.71198 4410 ft 295 kts 324°
2026-04-18 10:25 39.83307 44.69597 4408 ft 296 kts 324°
2026-04-18 10:25 39.84954 44.67988 4401 ft 297 kts 324°
2026-04-18 10:25 39.86606 44.66377 4413 ft 297 kts 324°
2026-04-18 10:26 39.88263 44.64763 4415 ft 298 kts 323°
2026-04-18 10:26 39.89927 44.63160 4418 ft 298 kts 323°
2026-04-18 10:26 39.91599 44.61566 4430 ft 297 kts 324°
2026-04-18 10:26 39.93260 44.59969 4459 ft 297 kts 324°
2026-04-18 10:27 39.94927 44.58381 4448 ft 297 kts 324°
2026-04-18 10:27 39.96599 44.56795 4422 ft 297 kts 324°
2026-04-18 10:27 39.98265 44.55218 4411 ft 296 kts 323°
2026-04-18 10:27 39.99837 44.53487 4406 ft 295 kts 316°
2026-04-18 10:28 40.01300 44.51611 4412 ft 295 kts 314°
2026-04-18 10:28 40.02729 44.49699 4426 ft 295 kts 313°
2026-04-18 10:28 40.04156 44.47769 4432 ft 295 kts 314°
2026-04-18 10:28 40.05657 44.45945 4447 ft 294 kts 318°
2026-04-18 10:29 40.07191 44.44191 4439 ft 293 kts 319°
2026-04-18 10:29 40.08740 44.42455 4436 ft 293 kts 320°
2026-04-18 10:29 40.10257 44.40693 4428 ft 292 kts 315°
2026-04-18 10:29 40.11568 44.38676 4418 ft 291 kts 308°
2026-04-18 10:30 40.12763 44.36591 4416 ft 290 kts 306°
2026-04-18 10:30 40.13966 44.34490 4422 ft 289 kts 309°
2026-04-18 10:30 40.15296 44.32509 4423 ft 289 kts 312°
2026-04-18 10:30 40.16638 44.30562 4415 ft 287 kts 306°
2026-04-18 10:31 40.17117 44.28090 3960 ft 297 kts 255°
2026-04-18 10:31 40.16311 44.25682 4360 ft 275 kts 243°
2026-04-18 10:31 40.15505 44.23479 4621 ft 270 kts 243°
2026-04-18 10:31 40.14600 44.21290 4492 ft 276 kts 233°
2026-04-18 10:32 40.13391 44.19333 4478 ft 278 kts 228°
2026-04-18 10:32 40.12118 44.17416 4453 ft 280 kts 229°
2026-04-18 10:32 40.10911 44.15407 4451 ft 282 kts 231°
2026-04-18 10:32 40.09732 44.13353 4446 ft 283 kts 232°
2026-04-18 10:33 40.08565 44.11285 4433 ft 283 kts 233°
2026-04-18 10:33 40.07392 44.09210 4433 ft 284 kts 233°
2026-04-18 10:33 40.06209 44.07144 4426 ft 284 kts 233°
2026-04-18 10:33 40.05024 44.05081 4440 ft 284 kts 233°
2026-04-18 10:34 40.03843 44.03011 4443 ft 284 kts 234°
2026-04-18 10:34 40.02748 44.00863 4445 ft 284 kts 237°
2026-04-18 10:34 40.01696 43.98678 4465 ft 285 kts 238°
2026-04-18 10:34 40.00691 43.96451 4476 ft 286 kts 242°
2026-04-18 10:35 39.99789 43.94148 4471 ft 287 kts 244°
2026-04-18 10:35 39.98913 43.91800 4506 ft 288 kts 244°
2026-04-18 10:35 39.98300 43.89350 4401 ft 288 kts 273°
2026-04-18 10:35 39.98766 43.86817 4483 ft 283 kts 288°
2026-04-18 10:36 39.99302 43.84338 4584 ft 286 kts 287°
2026-04-18 10:36 39.99988 43.81932 4586 ft 288 kts 295°
2026-04-18 10:36 40.00859 43.79568 4526 ft 290 kts 297°
2026-04-18 10:36 40.01792 43.77202 4509 ft 290 kts 298°
2026-04-18 10:37 40.02753 43.74891 4472 ft 290 kts 298°
2026-04-18 10:37 40.03717 43.72625 4457 ft 289 kts 298°
2026-04-18 10:37 40.04700 43.70341 4451 ft 288 kts 299°
2026-04-18 10:37 40.05684 43.68067 4446 ft 288 kts 299°
2026-04-18 10:38 40.06669 43.65796 4449 ft 287 kts 299°
2026-04-18 10:38 40.07653 43.63531 4459 ft 287 kts 299°
2026-04-18 10:38 40.08636 43.61267 4470 ft 287 kts 299°
2026-04-18 10:38 40.09624 43.59006 4476 ft 286 kts 299°
2026-04-18 10:39 40.10615 43.56753 4477 ft 286 kts 299°
2026-04-18 10:39 40.11520 43.54454 4427 ft 284 kts 288°
2026-04-18 10:39 40.12027 43.51976 4472 ft 282 kts 282°
2026-04-18 10:39 40.12416 43.49469 4475 ft 281 kts 275°
2026-04-18 10:40 40.12524 43.46915 4495 ft 281 kts 270°
2026-04-18 10:40 40.12544 43.44357 4519 ft 282 kts 269°
2026-04-18 10:40 40.12532 43.41793 4512 ft 283 kts 269°
2026-04-18 10:40 40.12504 43.39226 4493 ft 283 kts 270°
2026-04-18 10:41 40.13215 43.36993 4119 ft 300 kts 327°
2026-04-18 10:41 40.14702 43.34851 3855 ft 355 kts 287°
2026-04-18 10:41 40.15417 43.31506 4570 ft 412 kts 283°
2026-04-18 10:41 40.16179 43.27512 5069 ft 517 kts 281°
2026-04-18 10:42 40.17013 43.22486 4896 ft 592 kts 279°
2026-04-18 10:42 40.17723 43.17043 4535 ft 619 kts 278°
2026-04-18 10:42 40.17482 43.11661 4573 ft 566 kts 264°
2026-04-18 10:42 40.19065 43.06968 4404 ft 590 kts 301°
2026-04-18 10:43 40.21378 43.02443 4532 ft 604 kts 303°
2026-04-18 10:43 40.22508 42.97668 5684 ft 542 kts 225°
2026-04-18 10:43 40.19950 42.95202 5955 ft 471 kts 272°
2026-04-18 10:43 40.20223 42.91483 7503 ft 370 kts 245°
2026-04-18 10:44 40.19346 42.88570 8709 ft 339 kts 256°
2026-04-18 10:44 40.19037 42.85527 10021 ft 345 kts 258°
2026-04-18 10:44 40.18758 42.82285 10247 ft 378 kts 261°
2026-04-18 10:44 40.18089 42.79116 8787 ft 390 kts 239°
2026-04-18 10:45 40.16567 42.75343 6376 ft 509 kts 239°
2026-04-18 10:45 40.14303 42.71640 5790 ft 525 kts 253°
2026-04-18 10:45 40.15810 42.67717 5943 ft 465 kts 301°
2026-04-18 10:45 40.15396 42.63870 5768 ft 438 kts 269°
2026-04-18 10:46 40.15943 42.59874 5137 ft 447 kts 257°
2026-04-18 10:46 40.14677 42.56818 5882 ft 339 kts 232°
2026-04-18 10:46 40.13142 42.54353 5125 ft 392 kts 242°
2026-04-18 10:46 40.12693 42.51886 5257 ft 439 kts 257°
2026-04-18 10:47 40.10554 42.48497 6056 ft 376 kts 182°
2026-04-18 10:47 40.08717 42.47519 6680 ft 343 kts 264°
2026-04-18 10:47 40.08992 42.45436 6761 ft 366 kts 287°
2026-04-18 10:47 40.09841 42.41588 5758 ft 516 kts 284°
2026-04-18 10:48 40.10642 42.36909 5737 ft 535 kts 260°
2026-04-18 10:48 40.09190 42.32424 5726 ft 546 kts 248°
2026-04-18 10:48 40.08449 42.27561 6066 ft 546 kts 259°
2026-04-18 10:48 40.07211 42.23250 5583 ft 489 kts 235°
2026-04-18 10:49 40.05343 42.19611 5244 ft 445 kts 238°
2026-04-18 10:49 40.03041 42.17520 5283 ft 409 kts 249°
2026-04-18 10:49 40.04684 42.15128 5530 ft 385 kts 317°
2026-04-18 10:49 40.05935 42.12403 5541 ft 339 kts 298°
2026-04-18 10:50 40.05170 42.09790 5705 ft 345 kts 222°
2026-04-18 10:50 40.03346 42.07341 5465 ft 429 kts 240°
2026-04-18 10:50 40.02884 42.02967 5361 ft 559 kts 263°
2026-04-18 10:50 40.01472 41.98448 5457 ft 527 kts 239°
2026-04-18 10:51 39.99697 41.94219 5594 ft 533 kts 232°
2026-04-18 10:51 39.97477 41.90156 5730 ft 566 kts 241°
2026-04-18 10:51 39.96399 41.85103 5647 ft 571 kts 271°
2026-04-18 10:51 39.96508 41.79889 5665 ft 595 kts 268°
2026-04-18 10:52 39.95960 41.74552 5734 ft 589 kts 249°
2026-04-18 10:52 39.94408 41.69544 5647 ft 606 kts 245°
2026-04-18 10:52 39.92777 41.64526 5733 ft 600 kts 250°
2026-04-18 10:52 39.94537 41.60147 6050 ft 575 kts 261°
2026-04-18 10:53 39.94167 41.55110 6045 ft 558 kts 266°
2026-04-18 10:53 39.93681 41.50382 6187 ft 518 kts 256°
2026-04-18 10:53 39.93008 41.45739 6497 ft 531 kts 260°
2026-04-18 10:53 39.92593 41.41229 7608 ft 421 kts 268°
2026-04-18 10:54 39.93001 41.37556 6999 ft 422 kts 319°
2026-04-18 10:54 39.94717 41.35230 7561 ft 307 kts 291°
2026-04-18 10:54 39.95559 41.32870 7192 ft 266 kts 288°
2026-04-18 10:54 39.95896 41.30618 6936 ft 266 kts 275°
2026-04-18 10:55 39.96006 41.28366 6791 ft 234 kts 269°
2026-04-18 10:55 39.95946 41.26288 6451 ft 229 kts 267°
2026-04-18 10:55 39.95907 41.24280 6297 ft 208 kts 268°
2026-04-18 10:55 39.95880 41.22587 6177 ft 162 kts 268°
2026-04-18 10:56 39.95850 41.21152 5982 ft 164 kts 266°
2026-04-18 10:56 39.95811 41.19727 5820 ft 149 kts 265°
2026-04-18 10:56 39.95773 41.18487 5766 ft 99 kts 267°
2026-04-18 10:56 39.95762 41.18001 5767 ft 28 kts 270°
2026-04-18 10:57 39.95771 41.17911 5767 ft 0 kts 284°
2026-04-18 10:58 39.95777 41.17895 5750 ft 14 kts 309°
2026-04-18 10:58 39.95874 41.17892 5767 ft 14 kts 354°
2026-04-18 10:58 39.95962 41.17887 5766 ft 12 kts
2026-04-18 10:58 39.96040 41.17877 5766 ft 10 kts 358°
2026-04-18 10:59 39.96050 41.17877 5766 ft 0 kts